NORSAT 1

Satellite information

Favourite Embed

Satellite Type and Status

PAYLOADIN ORBIT

Key statistics

Satellite NORSAT 1 at a glance.

Uptime

3074

Days in orbit

Revolutions

≈ 15.1

Per day

Orbit

SSO

Sun Synchronous Orbit

Inclination

97.4

Latest

Satellite identification and parameters

Extended collection of information and parameters for NORSAT 1.

Object identification

Identified? True

Debris? False

Object name: NORSAT 1

International designator: 2017-042B

Object number (NORAD): 42826

Object ID (CCSDS): 42826

Country: NORWAY (NOR)

Current information (Y/N): Y

RCS size: MEDIUM

Orbital parameters

Period: 95.297 minutes

Inclination: 97.4264 deg

SMA: 6911.087 km

Apoapsis: 538.451 km

Periapsis: 527.452 km

RAAN: 153.4711 deg

Eccentricy: 0.0007957

Argument of periapsis: 20.1656 deg

Mean anomaly: 339.9887 deg

Mean motion: 15.11065396 rev/day

Mean motion (dot): 0.00011656 rev/day2

B* drag term: 0.0006993 1/REarth

Two-line elements (TLE)

Creation date: Dec. 12, 2025, 7:16 a.m.

Reference frame: TEME

Reference center: EARTH

Epoch: Dec. 12, 2025, 12:09 a.m. UTC

TLE line 0: 0 NORSAT 1

TLE line 1: 1 42826U 17042B 25346.00653417 .00011656 00000-0 69930-3 0 9991

TLE line 2: 2 42826 97.4264 153.4711 0007957 20.1656 339.9887 15.11065396458939

Live tracking on map

Real-time ground track for satellite NORSAT 1.

In-orbit conjunctions

There are no conjunctions computed for NORSAT 1, at the moment. Check back to stay up to date, as we update our databases every day.

Go to all conjunctions

Associated space launch

Kanopus-V-IK is a small Russian remote sensing satellite for monitoring wildfires. Weighing about 473 kg, it is intended for 5 years of operation in a 510 km sun-synchronous orbit.

NORSAT 1 was lifted into orbit during the mission ‘Soyuz-2.1a/Fregat | Kanopus-V-IK’, on board a Soyuz 2.1a/Fregat-M space rocket.

The launch took place on July 14, 2017, 6:36 a.m. from 31/6.

For more information about the launch, click the button.

Launch to space Soyuz-2.1a/Fregat | Kanopus-V-IK
Soyuz-2.1a/Fregat | Kanopus-V-IK

Agency: N/A

Status: Launch was a Partial Failure

Launch date: July 14, 2017, 6:36 a.m. UTC

Rocket: Soyuz 2.1a/Fregat-M

Launch pad: 31/6

Location: Baikonur Cosmodrome, Republic of Kazakhstan

...

Latest news about this satellite

There are no fresh news available about this satellite. Check back as we update our databases every day.


Newsletter sign-up

Weekly statistics, charts and insights to help you stay on top of the space industry.